Back to catalog

COSMOS 970

AliveMilitaryLEO
NORAD 10531·PAYLOAD·🇷🇺 Russia

Launched Dec 21, 1977 from Baikonur Cosmodrome

Loading…

Next Passes (next 24 hours)

TLE

FreshSource: Space-Track

Epoch: Sep 14, 2026, 12:42 UTC

1 10531U 77121A   26257.52983112 -.00000059  00000-0  22517-4 0  9997
2 10531  65.8537 305.6323 0140662 158.5308 202.1728 13.59869659811594

Track COSMOS 970 in real time with AllMySat

Download on the App Store